WBANNO,USDM_WEEK,LONGITUDE,LATITUDE,SMVWC_5_CM_MEAN,SMANOM_5_CM_MEAN,SMPERC_5_CM_30COUNTS,SMPERC_5_CM_70COUNTS,SMVWC_10_CM_MEAN,SMANOM_10_CM_MEAN,SMPERC_10_CM_30COUNTS,SMPERC_10_CM_70COUNTS,SMVWC_20_CM_MEAN,SMANOM_20_CM_MEAN,SMPERC_20_CM_30COUNTS,SMPERC_20_CM_70COUNTS,SMVWC_50_CM_MEAN,SMANOM_50_CM_MEAN,SMPERC_50_CM_30COUNTS,SMPERC_50_CM_70COUNTS,SMVWC_100_CM_MEAN,SMANOM_100_CM_MEAN,SMPERC_100_CM_30COUNTS,SMPERC_100_CM_70COUNTS,SMVWC_TOP_CM_MEAN,SMANOM_TOP_CM_MEAN,SMPERC_TOP_CM_30COUNTS,SMPERC_TOP_CM_70COUNTS,SMVWC_COLUMN_CM_MEAN,SMANOM_COLUMN_CM_MEAN,SMPERC_COLUMN_CM_30COUNTS,SMPERC_COLUMN_CM_70COUNTS
03061,20100423,-108.5,37.26,,,,,,,,,,,,,,,,,,,,,,,,,,,,
03061,20100424,-108.5,37.26,,,,,,,,,,,,,,,,,,,,,,,,,,,,
03061,20100425,-108.5,37.26,,,,,,,,,,,,,,,,,,,,,,,,,,,,
03061,20100426,-108.5,37.26,,,,,,,,,,,,,,,,,,,,,,,,,,,,
03061,20100427,-108.5,37.26,,,,,,,,,,,,,,,,,,,,,,,,,,,,
03061,20100428,-108.5,37.26,,,,,,,,,,,,,,,,,,,,,,,,,,,,
03061,20100429,-108.5,37.26,0.308,1.08,0,1,0.302,1.09,0,1,0.323,0.84,0,1,0.306,0.21,0,0.667,0.305,0.27,0,0.513,0.305,1.07,0,1,0.309,0.77,0,1
03061,20100430,-108.5,37.26,0.303,1.04,0,1,0.3,1.06,0,1,0.324,0.85,0,1,0.307,0.23,0,0.762,0.311,0.31,0,0.619,0.302,1.03,0,1,0.309,0.77,0,1
03061,20100501,-108.5,37.26,0.299,0.99,0,1,0.298,1.02,0,1,0.323,0.85,0,1,0.307,0.24,0,0.899,0.319,0.37,0,0.762,0.298,0.99,0,1,0.309,0.77,0,1
03061,20100502,-108.5,37.26,0.294,0.94,0,1,0.295,0.99,0,1,0.323,0.83,0,1,0.307,0.25,0,0.982,0.324,0.41,0,0.905,0.295,0.96,0,1,0.309,0.76,0,1
03061,20100503,-108.5,37.26,0.29,0.9,0,1,0.293,0.97,0,1,0.322,0.82,0,1,0.307,0.25,0,1,0.328,0.44,0,1,0.292,0.92,0,1,0.308,0.75,0,1
03061,20100504,-108.5,37.26,0.288,0.87,0,1,0.292,0.95,0,1,0.321,0.8,0,1,0.307,0.25,0,1,0.331,0.46,0,1,0.29,0.9,0,1,0.308,0.74,0,1
03061,20100505,-108.5,37.26,0.287,0.86,0,1,0.291,0.94,0,1,0.321,0.78,0,1,0.307,0.25,0,1,0.332,0.47,0,1,0.289,0.89,0,1,0.307,0.73,0,1
03061,20100506,-108.5,37.26,0.285,0.84,0,1,0.29,0.93,0,1,0.321,0.78,0,1,0.306,0.24,0,1,0.334,0.48,0,1,0.288,0.89,0,1,0.307,0.72,0,1
03061,20100507,-108.5,37.26,0.283,0.82,0,1,0.29,0.92,0,1,0.321,0.78,0,1,0.306,0.24,0,1,0.334,0.48,0,1,0.287,0.88,0,1,0.307,0.71,0,1
03061,20100508,-108.5,37.26,0.278,0.78,0,1,0.289,0.91,0,1,0.321,0.78,0,1,0.306,0.24,0,1,0.335,0.48,0,1,0.284,0.85,0,1,0.306,0.68,0,1
03061,20100509,-108.5,37.26,0.272,0.73,0,1,0.287,0.88,0,1,0.321,0.78,0,1,0.307,0.24,0,1,0.335,0.48,0,1,0.279,0.8,0,1,0.304,0.65,0,1
03061,20100510,-108.5,37.26,0.263,0.65,0,0.917,0.285,0.85,0,1,0.321,0.79,0,1,0.307,0.24,0,1,0.335,0.49,0,1,0.274,0.75,0,1,0.302,0.61,0,1
03061,20100511,-108.5,37.26,0.253,0.57,0,0.774,0.281,0.8,0,1,0.322,0.8,0,1,0.307,0.24,0,1,0.336,0.49,0,1,0.267,0.67,0,1,0.3,0.57,0,1
03061,20100512,-108.5,37.26,0.242,0.47,0,0.631,0.277,0.74,0,1,0.321,0.79,0,1,0.307,0.24,0,1,0.336,0.5,0,1,0.259,0.59,0,0.952,0.297,0.52,0,1
03061,20100513,-108.5,37.26,0.231,0.39,0,0.488,0.272,0.69,0,1,0.321,0.78,0,1,0.307,0.24,0,1,0.336,0.51,0,1,0.251,0.51,0,0.833,0.293,0.48,0,1
03061,20100514,-108.5,37.26,0.221,0.32,0,0.345,0.267,0.64,0,1,0.32,0.77,0,1,0.307,0.24,0,1,0.337,0.51,0,1,0.244,0.44,0,0.69,0.29,0.44,0,1
03061,20100515,-108.5,37.26,0.213,0.26,0,0.202,0.263,0.59,0,1,0.319,0.77,0,1,0.307,0.24,0,1,0.337,0.52,0,1,0.238,0.39,0,0.548,0.288,0.41,0,1
03061,20100516,-108.5,37.26,0.205,0.21,0,0.06,0.258,0.56,0,1,0.319,0.76,0,1,0.307,0.24,0,1,0.337,0.53,0,1,0.232,0.35,0,0.405,0.285,0.38,0,1
03061,20100517,-108.5,37.26,0.198,0.18,0,0,0.254,0.53,0,1,0.318,0.75,0,1,0.306,0.24,0,1,0.338,0.54,0,1,0.226,0.32,0,0.262,0.283,0.36,0,1
03061,20100518,-108.5,37.26,0.191,0.15,0,0,0.25,0.51,0,1,0.317,0.75,0,1,0.306,0.24,0,1,0.338,0.54,0,1,0.22,0.3,0,0.119,0.28,0.34,0,0.964
03061,20100519,-108.5,37.26,0.184,0.13,0,0,0.245,0.49,0,0.946,0.316,0.74,0,1,0.305,0.24,0,1,0.338,0.55,0,1,0.215,0.28,0,0.024,0.278,0.33,0,0.821
03061,20100520,-108.5,37.26,0.178,0.11,0,0,0.241,0.47,0,0.899,0.315,0.73,0,1,0.305,0.24,0,1,0.338,0.55,0,1,0.209,0.27,0,0,0.275,0.32,0,0.679
03061,20100521,-108.5,37.26,0.172,0.1,0,0,0.236,0.46,0,0.869,0.314,0.73,0,1,0.305,0.24,0,1,0.338,0.55,0,1,0.204,0.26,0,0,0.273,0.31,0,0.577
03061,20100522,-108.5,37.26,0.165,0.09,0,0,0.231,0.45,0,0.839,0.313,0.73,0,1,0.304,0.24,0,1,0.338,0.56,0,1,0.198,0.25,0,0,0.27,0.31,0,0.476
03061,20100523,-108.5,37.26,0.159,0.07,0,0,0.225,0.44,0,0.756,0.312,0.72,0,1,0.304,0.25,0,1,0.338,0.56,0,1,0.192,0.23,0,0,0.267,0.31,0,0.333
03061,20100524,-108.5,37.26,0.152,0.06,0,0,0.219,0.42,0,0.649,0.31,0.72,0,1,0.303,0.25,0,1,0.338,0.57,0,1,0.185,0.22,0,0,0.264,0.3,0,0.19
03061,20100525,-108.5,37.26,0.146,0.05,0,0,0.212,0.41,0,0.506,0.308,0.72,0,1,0.303,0.26,0,1,0.338,0.58,0,1,0.179,0.2,0,0,0.261,0.3,0,0.083
03061,20100526,-108.5,37.26,0.14,0.04,0,0,0.206,0.39,0,0.446,0.306,0.72,0,1,0.302,0.27,0,1,0.338,0.59,0,1,0.173,0.19,0,0,0.259,0.3,0,0.083
03061,20100527,-108.5,37.26,0.135,0.04,0,0,0.2,0.38,0,0.351,0.304,0.71,0,1,0.301,0.29,0,1,0.338,0.59,0,1,0.168,0.18,0,0,0.256,0.3,0,0.083
03061,20100528,-108.5,37.26,0.13,0.03,0,0,0.194,0.35,0,0.238,0.301,0.71,0,1,0.3,0.31,0,1,0.338,0.6,0,1,0.162,0.17,0,0,0.253,0.3,0,0.125
03061,20100529,-108.5,37.26,0.125,0.03,0,0,0.188,0.33,0,0.125,0.298,0.71,0,1,0.299,0.33,0,1,0.338,0.61,0,1,0.156,0.16,0,0,0.25,0.3,0,0.22
03061,20100530,-108.5,37.26,0.121,0.02,0,0,0.182,0.31,0,0.065,0.295,0.71,0,1,0.298,0.36,0,1,0.339,0.62,0,1,0.152,0.16,0,0,0.247,0.31,0,0.363
03061,20100531,-108.5,37.26,0.117,0.02,0,0,0.177,0.29,0,0.03,0.291,0.71,0,1,0.297,0.39,0,1,0.339,0.64,0,1,0.147,0.15,0,0,0.244,0.31,0,0.506
03061,20100601,-108.5,37.26,0.114,0.02,0,0,0.172,0.28,0,0.03,0.287,0.7,0,1,0.296,0.42,0,1,0.339,0.64,0,1,0.143,0.14,0,0,0.242,0.33,0,0.649
03061,20100602,-108.5,37.26,0.11,0.02,0,0,0.167,0.27,0,0,0.283,0.7,0,1,0.295,0.46,0,1,0.339,0.66,0,1,0.139,0.13,0,0,0.239,0.34,0,0.792
03061,20100603,-108.5,37.26,0.107,0.01,0,0,0.164,0.26,0,0,0.279,0.7,0,1,0.294,0.5,0,1,0.339,0.67,0,1,0.135,0.13,0,0,0.236,0.35,0,0.935
03061,20100604,-108.5,37.26,0.103,0,0,0,0.161,0.26,0,0,0.275,0.7,0,1,0.293,0.55,0,1,0.339,0.68,0,1,0.132,0.12,0,0,0.234,0.37,0,0.994
03061,20100605,-108.5,37.26,0.1,-0.01,0,0,0.158,0.26,0,0,0.271,0.7,0,1,0.292,0.6,0,1,0.339,0.7,0,1,0.129,0.11,0,0,0.232,0.39,0,1
03061,20100606,-108.5,37.26,0.098,-0.01,0,0,0.157,0.26,0,0,0.267,0.7,0,1,0.291,0.65,0,1,0.339,0.72,0,1,0.127,0.11,0,0,0.23,0.41,0,1
03061,20100607,-108.5,37.26,0.095,-0.02,0,0,0.155,0.27,0,0.012,0.263,0.7,0,1,0.29,0.7,0,1,0.338,0.74,0,1,0.125,0.11,0,0,0.228,0.44,0,1
03061,20100608,-108.5,37.26,0.092,-0.04,0,0,0.153,0.28,0,0.048,0.259,0.69,0,1,0.288,0.74,0,1,0.338,0.77,0,1,0.123,0.1,0,0,0.226,0.46,0,1
03061,20100609,-108.5,37.26,0.09,-0.05,0,0,0.152,0.29,0,0.125,0.255,0.68,0,1,0.287,0.79,0,1,0.338,0.79,0,1,0.121,0.09,0,0,0.224,0.48,0,1
03061,20100610,-108.5,37.26,0.087,-0.07,0,0,0.15,0.3,0,0.25,0.252,0.67,0,1,0.285,0.83,0,1,0.338,0.82,0,1,0.119,0.09,0,0,0.222,0.51,0,1
03061,20100611,-108.5,37.26,0.085,-0.09,0,0,0.149,0.31,0,0.369,0.249,0.66,0,1,0.282,0.87,0,1,0.338,0.84,0,1,0.117,0.08,0,0,0.22,0.54,0,1
03061,20100612,-108.5,37.26,0.082,-0.11,0,0,0.147,0.32,0,0.411,0.245,0.66,0,1,0.28,0.92,0,1,0.337,0.86,0,1,0.114,0.06,0,0,0.218,0.56,0,1
03061,20100613,-108.5,37.26,0.079,-0.14,0.006,0,0.145,0.3,0,0.411,0.242,0.65,0,1,0.277,0.95,0,1,0.337,0.88,0,1,0.112,0.04,0,0,0.216,0.58,0,1
03061,20100614,-108.5,37.26,0.077,-0.15,0.006,0,0.143,0.29,0,0.399,0.239,0.65,0,1,0.274,1,0,1,0.337,0.91,0,1,0.11,0.02,0,0,0.214,0.61,0,1
03061,20100615,-108.5,37.26,0.075,-0.15,0.006,0,0.141,0.28,0,0.387,0.236,0.66,0,1,0.27,1.04,0,1,0.337,0.93,0,1,0.108,0.02,0,0,0.212,0.64,0,1
03061,20100616,-108.5,37.26,0.075,-0.13,0.006,0,0.14,0.29,0,0.417,0.234,0.68,0,1,0.267,1.09,0,1,0.336,0.95,0,1,0.107,0.03,0,0,0.211,0.67,0,1
03061,20100617,-108.5,37.26,0.075,-0.1,0.006,0,0.139,0.3,0,0.435,0.233,0.71,0,1,0.263,1.15,0,1,0.336,0.98,0,1,0.107,0.04,0,0,0.209,0.71,0,1
03061,20100618,-108.5,37.26,0.075,-0.07,0.006,0,0.138,0.31,0,0.458,0.232,0.74,0,1,0.26,1.22,0,1,0.336,1.02,0,1,0.106,0.07,0,0,0.208,0.75,0,1
03061,20100619,-108.5,37.26,0.075,-0.03,0.006,0,0.138,0.33,0,0.56,0.231,0.77,0,1,0.256,1.28,0,1,0.335,1.06,0,1,0.106,0.1,0,0.006,0.207,0.79,0,1
03061,20100620,-108.5,37.26,0.075,0.01,0,0,0.138,0.36,0,0.702,0.23,0.8,0,1,0.251,1.35,0,1,0.335,1.11,0,1,0.106,0.14,0,0.006,0.206,0.83,0,1
03061,20100621,-108.5,37.26,0.075,0.03,0,0,0.138,0.4,0,0.845,0.23,0.84,0,1,0.246,1.42,0,1,0.334,1.16,0,1,0.106,0.17,0,0.012,0.204,0.87,0,1
03061,20100622,-108.5,37.26,0.074,0.04,0,0,0.138,0.43,0,0.964,0.229,0.87,0,1,0.241,1.49,0,1,0.333,1.22,0,1,0.106,0.19,0,0.012,0.203,0.91,0,1
03061,20100623,-108.5,37.26,0.072,0.02,0,0,0.137,0.44,0,1,0.228,0.89,0,1,0.236,1.54,0,1,0.332,1.28,0,1,0.104,0.19,0,0.012,0.201,0.94,0,1
03061,20100624,-108.5,37.26,0.07,0,0,0,0.136,0.44,0,1,0.227,0.91,0,1,0.231,1.59,0,1,0.332,1.35,0,1,0.103,0.18,0,0.012,0.199,0.95,0,1
03061,20100625,-108.5,37.26,0.068,-0.02,0,0,0.135,0.45,0,1,0.226,0.94,0,1,0.225,1.61,0,1,0.331,1.43,0,1,0.102,0.17,0,0.012,0.197,0.97,0,1
03061,20100626,-108.5,37.26,0.066,-0.05,0,0,0.134,0.44,0,1,0.225,0.96,0,1,0.22,1.62,0,1,0.33,1.52,0,1,0.1,0.15,0,0.006,0.195,0.99,0,1
03061,20100627,-108.5,37.26,0.065,-0.07,0,0,0.133,0.44,0,1,0.224,0.99,0,1,0.214,1.62,0,1,0.329,1.62,0,1,0.099,0.14,0,0.006,0.193,1.01,0,1
03061,20100628,-108.5,37.26,0.064,-0.1,0,0,0.132,0.43,0,0.988,0.223,1.01,0,1,0.209,1.6,0,1,0.328,1.74,0,1,0.098,0.11,0,0,0.191,1.03,0,1
03061,20100629,-108.5,37.26,0.063,-0.11,0,0,0.131,0.42,0,0.982,0.222,1.04,0,1,0.204,1.58,0,1,0.327,1.87,0,1,0.097,0.1,0,0,0.189,1.05,0,1
03061,20100630,-108.5,37.26,0.062,-0.12,0,0,0.13,0.42,0,0.982,0.222,1.08,0,1,0.199,1.54,0,1,0.325,2.02,0,1,0.096,0.09,0,0,0.188,1.07,0,1
03061,20100701,-108.5,37.26,0.062,-0.12,0,0,0.129,0.41,0,0.976,0.221,1.12,0,1,0.195,1.5,0,1,0.324,2.18,0,1,0.095,0.08,0,0,0.186,1.1,0,1
03061,20100702,-108.5,37.26,0.061,-0.13,0,0,0.128,0.4,0,0.958,0.221,1.17,0,1,0.191,1.47,0,1,0.322,2.35,0,1,0.095,0.07,0,0,0.185,1.13,0,1
03061,20100703,-108.5,37.26,0.061,-0.14,0,0,0.127,0.39,0,0.887,0.22,1.21,0,1,0.187,1.44,0,1,0.32,2.52,0,1,0.094,0.06,0,0,0.183,1.15,0,1
03061,20100704,-108.5,37.26,0.06,-0.15,0,0,0.126,0.37,0,0.756,0.219,1.26,0,1,0.184,1.41,0,1,0.319,2.71,0,1,0.093,0.05,0,0,0.182,1.18,0,1
03061,20100705,-108.5,37.26,0.061,-0.14,0,0,0.126,0.36,0,0.72,0.219,1.3,0,1,0.181,1.39,0,1,0.316,2.9,0,1,0.093,0.06,0,0,0.181,1.22,0,1
03061,20100706,-108.5,37.26,0.061,-0.14,0,0,0.125,0.36,0,0.685,0.218,1.35,0,1,0.179,1.38,0,1,0.314,3.11,0,1,0.093,0.07,0,0,0.179,1.25,0,1
03061,20100707,-108.5,37.26,0.061,-0.15,0,0,0.124,0.36,0,0.679,0.218,1.4,0,1,0.177,1.38,0,1,0.312,3.31,0,1,0.092,0.08,0,0.012,0.178,1.29,0,1
03061,20100708,-108.5,37.26,0.061,-0.16,0,0,0.124,0.37,0,0.685,0.217,1.44,0,1,0.175,1.37,0,1,0.309,3.53,0,1,0.092,0.08,0,0.012,0.177,1.32,0,1
03061,20100709,-108.5,37.26,0.06,-0.18,0.024,0,0.123,0.37,0,0.702,0.217,1.49,0,1,0.173,1.37,0,1,0.307,3.75,0,1,0.092,0.08,0,0.018,0.176,1.35,0,1
03061,20100710,-108.5,37.26,0.06,-0.2,0.077,0,0.123,0.38,0,0.768,0.216,1.52,0,1,0.171,1.37,0,1,0.304,4,0,1,0.091,0.07,0,0.018,0.175,1.38,0,1
03061,20100711,-108.5,37.26,0.06,-0.21,0.101,0,0.122,0.39,0,0.899,0.216,1.55,0,1,0.17,1.36,0,1,0.301,4.23,0,1,0.091,0.08,0,0.018,0.174,1.41,0,1
03061,20100712,-108.5,37.26,0.06,-0.24,0.119,0,0.122,0.41,0,0.946,0.216,1.59,0,1,0.168,1.36,0,1,0.299,4.47,0,1,0.091,0.07,0,0.018,0.173,1.43,0,1
03061,20100713,-108.5,37.26,0.06,-0.26,0.161,0,0.122,0.43,0,0.988,0.215,1.63,0,1,0.167,1.35,0,1,0.295,4.69,0,1,0.091,0.06,0,0.018,0.172,1.45,0,1
03061,20100714,-108.5,37.26,0.059,-0.27,0.19,0,0.121,0.44,0,0.994,0.215,1.66,0,1,0.166,1.34,0,1,0.293,4.92,0,1,0.09,0.06,0,0.006,0.171,1.46,0,1
03061,20100715,-108.5,37.26,0.059,-0.29,0.28,0,0.121,0.44,0,0.994,0.215,1.69,0,1,0.165,1.32,0,1,0.29,5.13,0,1,0.09,0.04,0,0.006,0.17,1.47,0,1
03061,20100716,-108.5,37.26,0.059,-0.29,0.369,0,0.121,0.45,0,0.994,0.214,1.71,0,1,0.164,1.3,0,1,0.287,5.33,0,1,0.09,0.04,0,0,0.169,1.47,0,1
03061,20100717,-108.5,37.26,0.059,-0.3,0.446,0,0.121,0.47,0,1,0.214,1.74,0,1,0.163,1.26,0,1,0.284,5.5,0,1,0.09,0.03,0,0,0.168,1.47,0,1
03061,20100718,-108.5,37.26,0.059,-0.32,0.565,0,0.121,0.47,0,1,0.214,1.77,0,1,0.162,1.22,0,1,0.281,5.67,0,1,0.09,0.01,0,0,0.167,1.45,0,1
03061,20100719,-108.5,37.26,0.058,-0.35,0.69,0,0.12,0.46,0,0.994,0.214,1.79,0,1,0.161,1.18,0,1,0.278,5.8,0,1,0.089,-0.03,0,0,0.166,1.43,0,1
03061,20100720,-108.5,37.26,0.058,-0.38,0.792,0,0.12,0.42,0,0.946,0.213,1.8,0,1,0.16,1.15,0,1,0.275,5.92,0,1,0.089,-0.07,0.03,0,0.165,1.4,0,1
03061,20100721,-108.5,37.26,0.057,-0.42,0.905,0,0.119,0.37,0,0.81,0.213,1.79,0,1,0.159,1.1,0,1,0.272,6,0,1,0.088,-0.13,0.137,0,0.164,1.35,0,1
03061,20100722,-108.5,37.26,0.056,-0.46,0.958,0,0.118,0.28,0,0.667,0.212,1.75,0,1,0.158,1.05,0,1,0.269,6.06,0,1,0.087,-0.21,0.28,0,0.162,1.29,0,1
03061,20100723,-108.5,37.26,0.055,-0.49,0.988,0,0.116,0.18,0,0.524,0.21,1.69,0,1,0.157,1.01,0,1,0.266,6.09,0,1,0.086,-0.28,0.423,0,0.161,1.22,0,1
03061,20100724,-108.5,37.26,0.056,-0.48,1,0,0.115,0.09,0,0.381,0.209,1.65,0,1,0.156,0.97,0,1,0.263,6.09,0,1,0.085,-0.32,0.56,0,0.16,1.16,0,1
03061,20100725,-108.5,37.26,0.065,-0.25,0.905,0.083,0.114,0,0,0.238,0.208,1.6,0,1,0.155,0.93,0,1,0.259,6.07,0,1,0.089,-0.17,0.607,0.083,0.16,1.18,0,1
03061,20100726,-108.5,37.26,0.083,0.23,0.762,0.226,0.113,-0.07,0,0.101,0.207,1.54,0,1,0.154,0.9,0,1,0.256,6.04,0,1,0.098,0.18,0.607,0.226,0.163,1.31,0,1
03061,20100727,-108.5,37.26,0.102,0.71,0.619,0.369,0.113,-0.08,0,0.06,0.206,1.51,0,1,0.153,0.87,0,1,0.253,5.97,0,1,0.107,0.55,0.577,0.369,0.165,1.46,0,1
03061,20100728,-108.5,37.26,0.117,1.09,0.476,0.512,0.113,-0.04,0,0.185,0.205,1.49,0,1,0.153,0.85,0,1,0.25,5.92,0,1,0.115,0.86,0.47,0.512,0.168,1.59,0,1
03061,20100729,-108.5,37.26,0.139,1.64,0.333,0.655,0.121,0.5,0,0.321,0.207,1.75,0,1,0.157,1.09,0,1,0.247,5.86,0,1,0.13,1.43,0.327,0.655,0.174,1.97,0,1
03061,20100730,-108.5,37.26,0.171,2.44,0.19,0.798,0.137,1.7,0,0.464,0.212,2.45,0,1,0.166,1.6,0,1,0.245,5.79,0,1,0.154,2.36,0.185,0.798,0.186,2.67,0,1
03061,20100731,-108.5,37.26,0.199,3.12,0.048,0.94,0.152,2.81,0,0.607,0.218,3.12,0,1,0.173,2.04,0,1,0.242,5.75,0,1,0.175,3.16,0.048,0.94,0.197,3.31,0,1
03061,20100801,-108.5,37.26,0.217,3.52,0,1,0.166,3.88,0,0.75,0.223,3.77,0,1,0.18,2.44,0,1,0.24,5.75,0,1,0.191,3.72,0,1,0.205,3.85,0,1
03061,20100802,-108.5,37.26,0.224,3.65,0,1,0.18,4.93,0,0.893,0.227,4.42,0,1,0.186,2.81,0,1,0.238,5.77,0,1,0.202,4.04,0,1,0.211,4.28,0,1
03061,20100803,-108.5,37.26,0.233,3.85,0,1,0.193,5.94,0,0.982,0.232,5.02,0,1,0.192,3.15,0,1,0.237,5.86,0,1,0.213,4.4,0,1,0.217,4.74,0,1
03061,20100804,-108.5,37.26,0.245,4.13,0,1,0.207,6.96,0,0.994,0.236,5.59,0,1,0.197,3.46,0,1,0.236,5.98,0,1,0.226,4.84,0,1,0.224,5.24,0,1
03061,20100805,-108.5,37.26,0.246,4.18,0,1,0.213,7.48,0,1,0.238,5.88,0,1,0.197,3.49,0,1,0.236,6.13,0,1,0.23,4.96,0,1,0.226,5.46,0,1
03061,20100806,-108.5,37.26,0.237,3.92,0,1,0.21,7.29,0,1,0.236,5.69,0,1,0.192,3.24,0,1,0.235,6.31,0,1,0.223,4.68,0,1,0.222,5.36,0,1
03061,20100807,-108.5,37.26,0.228,3.7,0,1,0.208,7.15,0,1,0.233,5.49,0,1,0.188,3.03,0,1,0.235,6.51,0,1,0.218,4.44,0,1,0.218,5.27,0,1
03061,20100808,-108.5,37.26,0.219,3.47,0,1,0.205,6.96,0,1,0.231,5.27,0,1,0.184,2.84,0,1,0.235,6.72,0,1,0.212,4.2,0,1,0.215,5.15,0,1
03061,20100809,-108.5,37.26,0.21,3.25,0,1,0.201,6.7,0,1,0.229,5.01,0,1,0.181,2.68,0,1,0.235,6.89,0,1,0.205,3.94,0,1,0.211,4.98,0,1
03061,20100810,-108.5,37.26,0.197,2.92,0,1,0.197,6.34,0,1,0.227,4.79,0,1,0.178,2.52,0,1,0.234,7.02,0,1,0.197,3.59,0,1,0.206,4.72,0,1
03061,20100811,-108.5,37.26,0.183,2.55,0,1,0.191,5.8,0,1,0.224,4.55,0,1,0.175,2.37,0,1,0.233,7.13,0,1,0.187,3.17,0,1,0.201,4.39,0,1
03061,20100812,-108.5,37.26,0.171,2.21,0,1,0.184,5.19,0,1,0.222,4.29,0,1,0.172,2.24,0,1,0.233,7.27,0,1,0.178,2.77,0,1,0.196,4.04,0,1
03061,20100813,-108.5,37.26,0.16,1.91,0,1,0.178,4.55,0,1,0.22,4.05,0,1,0.169,2.11,0,1,0.232,7.42,0,1,0.169,2.4,0,1,0.192,3.67,0,1
03061,20100814,-108.5,37.26,0.15,1.65,0,1,0.171,3.9,0,1,0.219,3.86,0,1,0.167,2.01,0,1,0.231,7.59,0,1,0.16,2.06,0,1,0.188,3.3,0,1
03061,20100815,-108.5,37.26,0.141,1.42,0,1,0.165,3.29,0,1,0.217,3.68,0,1,0.165,1.92,0,1,0.23,7.73,0,1,0.153,1.77,0,1,0.184,2.96,0,1
03061,20100816,-108.5,37.26,0.132,1.21,0,1,0.158,2.74,0,1,0.216,3.52,0,1,0.164,1.83,0,1,0.23,7.89,0,1,0.145,1.5,0,1,0.18,2.63,0,1
03061,20100817,-108.5,37.26,0.125,1.02,0,0.929,0.152,2.24,0,1,0.215,3.36,0,1,0.162,1.76,0,1,0.229,8.09,0,1,0.138,1.27,0,0.97,0.176,2.36,0,1
03061,20100818,-108.5,37.26,0.118,0.88,0,0.804,0.147,1.85,0,1,0.213,3.22,0,1,0.16,1.7,0,1,0.228,8.24,0,1,0.132,1.09,0,0.929,0.173,2.13,0,1
03061,20100819,-108.5,37.26,0.113,0.78,0,0.673,0.142,1.56,0,1,0.212,3.1,0,1,0.159,1.65,0,1,0.227,8.28,0,1,0.128,0.95,0,0.881,0.171,1.96,0,1
03061,20100820,-108.5,37.26,0.108,0.7,0,0.601,0.138,1.34,0,1,0.211,3.01,0,1,0.158,1.61,0,1,0.225,8.33,0,1,0.123,0.84,0,0.845,0.168,1.83,0,1
03061,20100821,-108.5,37.26,0.106,0.68,0,0.601,0.135,1.18,0,1,0.21,2.92,0,1,0.157,1.57,0,1,0.224,8.31,0,1,0.12,0.79,0,0.845,0.166,1.75,0,1
03061,20100822,-108.5,37.26,0.104,0.69,0,0.601,0.133,1.09,0,1,0.21,2.85,0,1,0.156,1.54,0,1,0.222,8.27,0,1,0.118,0.77,0,0.845,0.165,1.72,0,1
03061,20100823,-108.5,37.26,0.103,0.71,0,0.601,0.132,1.11,0,1,0.209,2.79,0,1,0.155,1.51,0,1,0.221,8.18,0,1,0.118,0.8,0,0.845,0.164,1.73,0,1
03061,20100824,-108.5,37.26,0.111,1.01,0,0.673,0.137,1.49,0,1,0.208,2.76,0,1,0.155,1.5,0,1,0.219,8.02,0,1,0.124,1.14,0,0.875,0.166,1.96,0,1
03061,20100825,-108.5,37.26,0.117,1.29,0,0.798,0.141,1.85,0,1,0.208,2.75,0,1,0.154,1.49,0,1,0.218,7.92,0,1,0.129,1.45,0,0.917,0.168,2.19,0,1
03061,20100826,-108.5,37.26,0.12,1.49,0,0.929,0.145,2.17,0,1,0.208,2.75,0,1,0.154,1.49,0,1,0.216,7.87,0,1,0.133,1.7,0,0.964,0.169,2.38,0,1
03061,20100827,-108.5,37.26,0.122,1.61,0,1,0.148,2.44,0,1,0.208,2.74,0,1,0.154,1.49,0,1,0.215,7.69,0,1,0.135,1.87,0,1,0.169,2.52,0,1
03061,20100828,-108.5,37.26,0.121,1.64,0,1,0.149,2.59,0,1,0.208,2.71,0,1,0.153,1.49,0,1,0.214,7.48,0,1,0.135,1.95,0,1,0.169,2.59,0,1
03061,20100829,-108.5,37.26,0.119,1.63,0,1,0.149,2.63,0,1,0.207,2.66,0,1,0.153,1.5,0,1,0.212,7.26,0,1,0.134,1.97,0,1,0.168,2.6,0,1
03061,20100830,-108.5,37.26,0.118,1.6,0,1,0.148,2.55,0,1,0.207,2.57,0,1,0.153,1.5,0,1,0.211,7.07,0,1,0.133,1.93,0,1,0.167,2.56,0,1
03061,20100831,-108.5,37.26,0.109,1.31,0,1,0.141,2.12,0,1,0.206,2.43,0,1,0.152,1.48,0,1,0.21,6.85,0,1,0.125,1.6,0,1,0.163,2.3,0,1
03061,20100901,-108.5,37.26,0.102,1.05,0,1,0.135,1.74,0,1,0.205,2.31,0,1,0.151,1.47,0,1,0.209,6.56,0,1,0.118,1.31,0,1,0.16,2.04,0,1
03061,20100902,-108.5,37.26,0.097,0.86,0,1,0.13,1.41,0,1,0.204,2.2,0,1,0.15,1.45,0,1,0.207,6.25,0,1,0.114,1.08,0,1,0.158,1.81,0,1
03061,20100903,-108.5,37.26,0.094,0.75,0,1,0.127,1.13,0,1,0.203,2.09,0,1,0.149,1.43,0,1,0.206,6,0,1,0.11,0.91,0,1,0.156,1.63,0,1
03061,20100904,-108.5,37.26,0.092,0.67,0,1,0.124,0.95,0,1,0.203,2,0,1,0.149,1.41,0,1,0.204,5.73,0,1,0.108,0.8,0,1,0.154,1.48,0,1
03061,20100905,-108.5,37.26,0.09,0.6,0,0.964,0.123,0.86,0,1,0.202,1.93,0,1,0.148,1.4,0,1,0.203,5.43,0,1,0.107,0.73,0,1,0.153,1.37,0,1
03061,20100906,-108.5,37.26,0.089,0.54,0,0.827,0.122,0.79,0,1,0.202,1.88,0,1,0.147,1.39,0,1,0.202,5.14,0,1,0.106,0.65,0,0.94,0.152,1.28,0,1
03061,20100907,-108.5,37.26,0.087,0.46,0,0.685,0.122,0.73,0,1,0.202,1.84,0,1,0.147,1.39,0,1,0.2,4.91,0,1,0.104,0.58,0,0.81,0.151,1.21,0,1
03061,20100908,-108.5,37.26,0.084,0.37,0,0.542,0.12,0.65,0,0.881,0.201,1.75,0,1,0.146,1.39,0,1,0.199,4.68,0,1,0.102,0.49,0,0.667,0.15,1.12,0,1
03061,20100909,-108.5,37.26,0.081,0.28,0,0.399,0.119,0.56,0,0.75,0.2,1.63,0,1,0.146,1.38,0,1,0.198,4.42,0,1,0.1,0.39,0,0.524,0.149,1.03,0,1
03061,20100910,-108.5,37.26,0.079,0.21,0,0.256,0.118,0.49,0,0.613,0.199,1.48,0,1,0.145,1.37,0,1,0.197,4.14,0,1,0.098,0.32,0,0.381,0.147,0.95,0,1
03061,20100911,-108.5,37.26,0.077,0.16,0,0.113,0.117,0.45,0,0.506,0.198,1.35,0,1,0.144,1.35,0,1,0.196,3.94,0,1,0.097,0.26,0,0.238,0.146,0.88,0,1
03061,20100912,-108.5,37.26,0.076,0.13,0,0.006,0.116,0.41,0,0.429,0.197,1.21,0,1,0.144,1.34,0,1,0.195,3.76,0,1,0.096,0.23,0,0.095,0.146,0.83,0,1
03061,20100913,-108.5,37.26,0.076,0.12,0,0,0.116,0.38,0,0.304,0.196,1.08,0,1,0.143,1.33,0,1,0.194,3.57,0,1,0.096,0.22,0,0.012,0.145,0.78,0,1
03061,20100914,-108.5,37.26,0.077,0.13,0,0,0.115,0.37,0,0.298,0.195,0.99,0,1,0.143,1.3,0,1,0.193,3.37,0,1,0.096,0.21,0,0.006,0.144,0.76,0,1
03061,20100915,-108.5,37.26,0.078,0.15,0,0,0.115,0.38,0,0.393,0.195,0.94,0,1,0.142,1.29,0,1,0.192,3.2,0,1,0.096,0.23,0,0.006,0.144,0.74,0,1
03061,20100916,-108.5,37.26,0.078,0.17,0,0,0.115,0.41,0,0.488,0.195,0.92,0,1,0.142,1.28,0,1,0.191,3.07,0,1,0.097,0.24,0,0.006,0.144,0.74,0,1
03061,20100917,-108.5,37.26,0.078,0.16,0,0,0.115,0.41,0,0.577,0.195,0.92,0,1,0.142,1.29,0,1,0.19,3,0,1,0.097,0.24,0,0.006,0.144,0.73,0,1
03061,20100918,-108.5,37.26,0.077,0.14,0,0,0.115,0.41,0,0.619,0.195,0.92,0,1,0.141,1.31,0,1,0.189,2.91,0,1,0.096,0.22,0,0.006,0.144,0.7,0,1
03061,20100919,-108.5,37.26,0.076,0.11,0,0,0.115,0.4,0,0.571,0.195,0.92,0,1,0.141,1.32,0,1,0.188,2.81,0,1,0.095,0.19,0,0.006,0.143,0.67,0,1
03061,20100920,-108.5,37.26,0.074,0.07,0,0,0.115,0.4,0,0.565,0.195,0.92,0,1,0.141,1.32,0,1,0.187,2.71,0,1,0.094,0.15,0,0.006,0.142,0.64,0,0.994
03061,20100921,-108.5,37.26,0.071,0.02,0,0,0.114,0.37,0,0.429,0.194,0.9,0,1,0.141,1.32,0,1,0.187,2.65,0,1,0.093,0.1,0,0,0.141,0.59,0,0.881
03061,20100922,-108.5,37.26,0.069,-0.03,0,0,0.113,0.34,0,0.31,0.194,0.87,0,1,0.14,1.31,0,1,0.186,2.6,0,1,0.091,0.06,0,0,0.141,0.54,0,0.738
03061,20100923,-108.5,37.26,0.08,0.11,0,0.101,0.116,0.43,0,0.256,0.193,0.82,0,0.994,0.14,1.3,0,1,0.186,2.57,0,1,0.098,0.19,0,0.095,0.143,0.63,0,0.696
03061,20100924,-108.5,37.26,0.099,0.37,0,0.244,0.127,0.9,0,0.304,0.192,0.78,0,0.988,0.139,1.28,0,1,0.185,2.53,0,1,0.113,0.5,0,0.238,0.149,0.86,0,0.696
03061,20100925,-108.5,37.26,0.117,0.58,0,0.387,0.138,1.3,0,0.369,0.192,0.77,0,0.988,0.139,1.25,0,1,0.184,2.5,0,1,0.127,0.76,0,0.381,0.154,1.05,0,0.696
03061,20100926,-108.5,37.26,0.132,0.75,0,0.53,0.148,1.64,0,0.494,0.192,0.78,0,0.988,0.139,1.24,0,1,0.184,2.45,0,1,0.14,0.97,0,0.524,0.159,1.22,0,0.696
03061,20100927,-108.5,37.26,0.146,0.9,0,0.673,0.156,1.94,0,0.625,0.192,0.83,0,0.988,0.139,1.24,0,1,0.183,2.42,0,1,0.151,1.15,0,0.667,0.163,1.36,0,0.702
03061,20100928,-108.5,37.26,0.159,1.03,0,0.815,0.164,2.19,0,0.768,0.193,0.89,0,0.988,0.138,1.25,0,1,0.183,2.4,0,1,0.161,1.31,0,0.81,0.167,1.48,0,0.815
03061,20100929,-108.5,37.26,0.169,1.14,0,0.905,0.171,2.4,0,0.911,0.193,0.98,0,0.988,0.138,1.28,0,1,0.183,2.4,0,1,0.17,1.44,0,0.952,0.171,1.58,0,0.958
03061,20100930,-108.5,37.26,0.165,1.04,0,0.804,0.174,2.45,0,1,0.195,1.08,0,0.994,0.139,1.31,0,1,0.183,2.39,0,1,0.169,1.38,0,1,0.171,1.53,0,1
03061,20101001,-108.5,37.26,0.15,0.82,0,0.661,0.166,2.08,0,1,0.196,1.17,0,1,0.139,1.38,0,1,0.183,2.38,0,1,0.158,1.12,0,0.887,0.167,1.31,0,1
03061,20101002,-108.5,37.26,0.137,0.64,0,0.518,0.158,1.75,0,1,0.196,1.24,0,1,0.139,1.44,0,1,0.183,2.37,0,1,0.148,0.89,0,0.744,0.163,1.12,0,1
03061,20101003,-108.5,37.26,0.125,0.49,0,0.375,0.151,1.44,0,0.982,0.197,1.27,0,1,0.14,1.5,0,1,0.183,2.37,0,1,0.138,0.71,0,0.601,0.159,0.95,0,1
03061,20101004,-108.5,37.26,0.114,0.36,0,0.232,0.143,1.16,0,0.839,0.197,1.27,0,1,0.14,1.54,0,1,0.183,2.4,0,1,0.129,0.54,0,0.458,0.155,0.81,0,0.964
03061,20101005,-108.5,37.26,0.104,0.25,0,0.089,0.137,0.92,0,0.696,0.197,1.23,0,1,0.14,1.58,0,1,0.183,2.41,0,1,0.12,0.4,0,0.315,0.152,0.68,0,0.821
03061,20101006,-108.5,37.26,0.096,0.16,0,0,0.131,0.72,0,0.554,0.196,1.16,0,1,0.14,1.61,0,1,0.183,2.4,0,1,0.114,0.29,0,0.173,0.149,0.57,0,0.679
03061,20101007,-108.5,37.26,0.091,0.1,0,0,0.126,0.56,0,0.411,0.194,1.08,0,1,0.14,1.62,0,1,0.183,2.41,0,1,0.108,0.21,0,0.03,0.147,0.48,0,0.536
03061,20101008,-108.5,37.26,0.088,0.06,0,0,0.122,0.43,0,0.268,0.193,1,0,1,0.139,1.59,0,1,0.183,2.41,0,1,0.105,0.15,0,0,0.145,0.42,0,0.393
03061,20101009,-108.5,37.26,0.086,0.04,0,0,0.119,0.33,0,0.125,0.192,0.92,0,0.994,0.139,1.55,0,1,0.183,2.43,0,1,0.102,0.1,0,0,0.144,0.36,0,0.25
03061,20101010,-108.5,37.26,0.086,0.03,0,0,0.117,0.26,0,0,0.191,0.83,0,0.976,0.138,1.52,0,1,0.183,2.44,0,1,0.101,0.07,0,0,0.143,0.32,0,0.107